Location: Newark
(47.5000°N, 4.6167°E)
Time: 02:47:23
(UTC+00:00)

X-37B - Pass Details

Date: 08 December 2021
Orbit: 334 x 337 km, 45.0° (Epoch: 11 January)

Event Time Altitude Azimuth Distance (km) Brightness Sun altitude
Rises 17:33:07 0° 228° (SW) 2,096 5.5 -16.5°
Reaches altitude 10° 17:35:20 10° 212° (SSW) 1,262 3.9 -16.9°
Maximum altitude 17:37:38 22° 158° (SSE) 782 2.0 -17.2°
Enters shadow 17:37:40 22° 157° (SSE) 782 2.0 -17.2°
